Seward, AK

8:49 PM AKDT on April 22, 2018 (GMT -0800)
Seward

Weather History for PAWD - August, 2013

Change the Weather History Date:

Monday, August 5, 2013

  Actual Average Record
Temperature  
Mean Temperature 55 °F -  
Max Temperature 57 °F 61 °F 78 °F (1950)
Min Temperature 53 °F 50 °F 42 °F (1965)
Degree Days  
Heating Degree Days 10    
Growing Degree Days 5 (Base 50)    
Moisture  
Dew Point 53 °F    
Average Humidity 96    
Maximum Humidity 100    
Minimum Humidity 83    
Precipitation  
Precipitation 0.37 in - - ()
Sea Level Pressure  
Sea Level Pressure 30.02 in    
Wind  
Wind Speed 1 mph (SSE)    
Max Wind Speed 12 mph    
Max Gust Speed -    
Visibility 7 miles    
Events Rain    
Averages and records for this station are not official NWS values.
T = Trace of Precipitation, MM = Missing Value Source: NWS Daily Summary

Daily Weather History Graph

Daily Weather History Graph

Search for Another Location

Airport or City:

Astronomy

Aug. 05, 2013 Rise Set
Actual Time 5:48 AM AKDT 10:17 PM AKDT
Civil Twilight 4:50 AM AKDT 11:14 PM AKDT
Nautical Twilight 3:05 AM AKDT 12:54 AM AKDT
Astronomical Twilight Sun does not set Sun does not set
Moon 4:59 AM AKDT (8/5) 9:07 PM AKDT (8/5)
Length of Visible Light 18h 23m
Length of Day
16h 28m
Waning Crescent, 1% of the Moon is Illuminated
Aug 5
Waning Crescent
Aug 6
New
Aug 14
First Quarter
Aug 20
Full
Aug 28
Last Quarter

Hourly Weather History & Observations

Time (AKDT) Temp. Dew Point Humidity Pressure Visibility Wind Dir Wind Speed Gust Speed Precip Events Conditions
12:32 AM 53.6 °F 53.6 °F 100% 30.01 in 6.0 mi Calm Calm - 0.01 in Rain Light Rain
12:53 AM 54.0 °F 53.1 °F 97% 30.01 in 6.0 mi Calm Calm - 0.01 in   Overcast
1:53 AM 54.0 °F 53.1 °F 97% 30.01 in 10.0 mi Calm Calm - 0.00 in   Overcast
2:37 AM 53.6 °F 53.6 °F 100% 30.01 in 10.0 mi Calm Calm - N/A   Overcast
2:53 AM 54.0 °F 52.0 °F 93% 30.01 in 10.0 mi Calm Calm - N/A   Overcast
3:10 AM 53.6 °F 51.8 °F 94% 30.01 in 10.0 mi Calm Calm - N/A   Overcast
3:38 AM 53.6 °F 51.8 °F 94% 30.01 in 4.0 mi Calm Calm - 0.01 in Rain Light Rain
3:53 AM 54.0 °F 52.0 °F 93% 30.01 in 5.0 mi Calm Calm - 0.01 in Rain Light Rain
4:34 AM 53.6 °F 53.6 °F 100% 30.01 in 8.0 mi Calm Calm - 0.01 in Rain Light Rain
4:41 AM 53.6 °F 53.6 °F 100% 30.01 in 9.0 mi Calm Calm - 0.01 in Rain Light Rain
4:53 AM 54.0 °F 53.1 °F 97% 30.01 in 9.0 mi Calm Calm - 0.01 in Rain Light Rain
5:03 AM 53.6 °F 53.6 °F 100% 30.01 in 6.0 mi Calm Calm - 0.01 in Rain Light Rain
5:25 AM 53.6 °F 53.6 °F 100% 30.01 in 10.0 mi Calm Calm - 0.01 in Rain Light Rain
5:53 AM 53.1 °F 52.0 °F 96% 30.01 in 4.0 mi Calm Calm - 0.01 in   Overcast
6:08 AM 53.6 °F 53.6 °F 100% 30.01 in 7.0 mi Calm Calm - N/A   Overcast
6:19 AM 53.6 °F 51.8 °F 94% 30.01 in 2.5 mi Calm Calm - N/A   Overcast
6:30 AM 53.6 °F 53.6 °F 100% 30.01 in 9.0 mi Calm Calm - N/A   Overcast
6:49 AM 53.6 °F 53.6 °F 100% 30.01 in 9.0 mi Calm Calm - N/A   Overcast
6:53 AM 54.0 °F 53.1 °F 97% 30.01 in 10.0 mi Calm Calm - N/A   Overcast
7:22 AM 53.6 °F 53.6 °F 100% 30.01 in 10.0 mi Calm Calm - N/A   Overcast
7:30 AM 53.6 °F 53.6 °F 100% 30.01 in 10.0 mi Calm Calm - N/A   Overcast
7:37 AM 53.6 °F 53.6 °F 100% 30.01 in 10.0 mi Calm Calm - N/A   Overcast
7:53 AM 54.0 °F 53.1 °F 97% 30.01 in 10.0 mi Calm Calm - N/A   Overcast
8:15 AM 53.6 °F 51.8 °F 94% 30.01 in 10.0 mi Calm Calm - N/A   Overcast
8:31 AM 53.6 °F 51.8 °F 94% 30.01 in 10.0 mi Calm Calm - N/A   Overcast
8:53 AM 53.1 °F 51.1 °F 93% 30.01 in 10.0 mi Calm Calm - 0.00 in Rain Light Rain
9:02 AM 53.6 °F 51.8 °F 94% 30.01 in 6.0 mi Calm Calm - 0.00 in Rain Light Rain
9:53 AM 53.1 °F 52.0 °F 96% 30.01 in 9.0 mi SE 3.5 mph - 0.02 in Rain Light Rain
10:53 AM 54.0 °F 53.1 °F 97% 30.02 in 2.5 mi Calm Calm - 0.03 in Rain Light Rain
11:10 AM 53.6 °F 53.6 °F 100% 30.02 in 4.0 mi Calm Calm - 0.01 in   Overcast
11:20 AM 53.6 °F 53.6 °F 100% 30.02 in 8.0 mi Calm Calm - 0.01 in Rain Light Rain
11:50 AM 55.4 °F 53.6 °F 94% 30.02 in 4.0 mi Calm Calm - 0.01 in Rain Light Rain
11:53 AM 54.0 °F 53.1 °F 97% 30.03 in 5.0 mi Calm Calm - 0.01 in Rain Light Rain
12:03 PM 55.4 °F 53.6 °F 94% 30.03 in 1.8 mi Calm Calm - 0.01 in Rain Light Rain
12:27 PM 53.6 °F 53.6 °F 100% 30.03 in 1.2 mi ESE 3.5 mph - 0.04 in Rain Light Rain
12:34 PM 55.4 °F 53.6 °F 94% 30.03 in 1.0 mi SE 3.5 mph - 0.06 in Rain Rain
12:41 PM 55.4 °F 53.6 °F 94% 30.03 in 1.2 mi Calm Calm - 0.07 in Rain Light Rain
12:53 PM 55.0 °F 55.0 °F 100% 30.03 in 1.8 mi SE 4.6 mph - 0.09 in Rain Light Rain
1:08 PM 55.4 °F 55.4 °F 100% 30.03 in 3.0 mi SE 3.5 mph - 0.01 in Rain Light Rain
1:34 PM 55.4 °F 55.4 °F 100% 30.03 in 1.8 mi Calm Calm - 0.03 in Rain Light Rain
1:42 PM 55.4 °F 55.4 °F 100% 30.03 in 3.0 mi SSE 3.5 mph - 0.03 in Rain Light Rain
1:53 PM 55.9 °F 54.0 °F 93% 30.03 in 9.0 mi South 4.6 mph - 0.03 in Rain Light Rain
2:00 PM 55.4 °F 53.6 °F 94% 30.03 in 5.0 mi South 6.9 mph - 0.01 in Rain Light Rain
2:46 PM 55.4 °F 53.6 °F 94% 30.03 in 10.0 mi SSW 11.5 mph - 0.03 in   Overcast
2:53 PM 57.0 °F 54.0 °F 89% 30.03 in 10.0 mi SSW 10.4 mph - 0.03 in   Overcast
3:32 PM 55.4 °F 53.6 °F 94% 30.03 in 10.0 mi SSW 10.4 mph - 0.01 in Rain Light Rain
3:53 PM 57.0 °F 54.0 °F 89% 30.03 in 6.0 mi SSW 9.2 mph - 0.02 in Rain Light Rain
4:53 PM 57.0 °F 52.0 °F 83% 30.03 in 10.0 mi SSW 11.5 mph - 0.03 in Rain Light Rain
5:53 PM 55.9 °F 52.0 °F 87% 30.03 in 10.0 mi South 5.8 mph - 0.02 in Rain Light Rain
6:53 PM 54.0 °F 51.1 °F 90% 30.02 in 10.0 mi SE 6.9 mph - 0.00 in   Overcast
7:53 PM 54.0 °F 52.0 °F 93% 30.02 in 10.0 mi ESE 4.6 mph - 0.00 in   Overcast
8:53 PM 55.0 °F 52.0 °F 89% 30.02 in 10.0 mi Calm Calm - N/A   Overcast
9:53 PM 55.0 °F 54.0 °F 96% 30.01 in 4.0 mi Calm Calm - 0.03 in Rain Light Rain
10:09 PM 53.6 °F 51.8 °F 94% 30.01 in 2.0 mi Calm Calm - 0.00 in Rain Light Rain
10:18 PM 53.6 °F 53.6 °F 100% 30.01 in 5.0 mi Calm Calm - 0.01 in Rain Light Rain
10:34 PM 53.6 °F 53.6 °F 100% 30.01 in 8.0 mi Calm Calm - 0.01 in Rain Light Rain
10:53 PM 53.1 °F 52.0 °F 96% 30.01 in 7.0 mi Calm Calm - 0.01 in Rain Light Rain
11:53 PM 54.0 °F 53.1 °F 97% 30.01 in 10.0 mi Calm Calm - 0.01 in   Overcast